CZ-6A R/B, 60397

Orbit data source: Space-Track

CZ-6A R/B, 60397 is space debris in LEO originally from a launch on Tue, 06 Aug 2024 UTC launched from the Taiyaun Space Center, China (TSC). Debris objects in space refer to the collection of defunct objects orbiting the Earth. Examples of debris include non-operational satellites, rocket bodies, and fragments generated from explosions, collisions, or faulty payload assembly.

Loading next visibility...
Identifier
60397, 2024-140U
Orbit
LEO
Country
Flag of CNCN / PRC
Related business
Manufacturer
SAST
Mission
Spacecraft
Bus & Motor
CZ-6A STAGE 2, YF-115
Mass
~6,000 kg wet, ~6,000 kg dry
Launch date (UTC)
2024-08-06 (1 year ago)
Launch vehicle
Unknown
Launch site
Taiyaun Space Center, China (TSC)
Object type
Payload
Rocket body
Debris
Shape & HBR
Unknown shape, 5.5 m
Radar Cross Section
Large (>1 m²)

Expand to show TLE details & history
Last TLE update: 4 hours ago

TLE from 4 hours ago
0 CZ-6A R/B
1 60397U 24140U   25351.33116358  .00000129  00000-0  53636-4 0  9991
2 60397  89.0022 295.2755 0043125  63.3431 297.2166 14.19840461 70387
Epoch: 2025-12-17T07:56Z
TLE epoch observation values (Epoch: 2025-12-17T07:56:52.533Z)
Latitude
0.00003°
Longitude
89.85405°
Altitude
814.84 km
Speed
7.453 km/s
True Right ascension
19h 41m 06s
True Declination
0° 00' 00"
Sunlit
Object was in daylight at epoch
Visualization orbit readout
Latitude
Unknown
Longitude
Unknown
Altitude
Unknown
Speed
Unknown
Apparent Right ascension
Unknown
Apparent Declination
Unknown
Sunlit
N/A
Visualization observer readout
Local Sidereal Time
11:05:10
Azimuth
Unknown
Elevation
Unknown
Doppler factor
Unknown
Orbital elements
Apogee altitude
853.898 km
Perigee altitude
791.79 km
Semi-major axis
7,200.981 km
Eccentricity
0.00431
Inclination
89.0022°
RAAN
295.2755°
Arg. of periapsis
63.3431°
True anomaly
296.77606°
Mean anomaly
297.2166°
Eccentric anomaly
296.99644°
Mean motion
3.55186 °/min
Orbital period
101.36 mins
BSTAR
0.000053636
Loading maneuver chart data...
Computing Atmospheric mass density...
Loading historical data...
Loading historical data...
Loading historical data...
Loading historical data...
Loading historical data...
Loading historical data...
Loading historical data...

Documentation

Showing up to 5 results
|